Weather History for Gulkana, AK

Change the Weather History Date:

Friday, October 11, 2013

  Actual Average Record
Temperature  
Mean Temperature 36 °F -  
Max Temperature 48 °F 38 °F 53 °F (1969)
Min Temperature 25 °F 25 °F -7 °F (1961)
Degree Days  
Heating Degree Days 28    
Moisture  
Dew Point 31 °F    
Average Humidity 69    
Maximum Humidity 86    
Minimum Humidity 41    
Precipitation  
Precipitation 0.00 in - - ()
Sea Level Pressure  
Sea Level Pressure 29.88 in    
Wind  
Wind Speed 12 mph (SSE)    
Max Wind Speed 22 mph    
Max Gust Speed 33 mph    
Visibility 10 miles    
Events      
Averages and records for this station are not official NWS values.
T = Trace of Precipitation, MM = Missing Value Source: NWS Daily Summary

Daily Weather History Graph

Daily Weather History Graph

Search for Another Location

Airport:

Trip Planner

Search our weather history database for the weather conditions in past years. The results will help you decide how hot, cold, wet, or windy it might be!

Date:

Astronomy

Oct. 11, 2013 Rise Set
Actual Time 8:16 AM AKDT 6:38 PM AKDT
Civil Twilight 7:31 AM AKDT 7:23 PM AKDT
Nautical Twilight 6:40 AM AKDT 8:14 PM AKDT
Astronomical Twilight 5:47 AM AKDT 9:07 PM AKDT
Moon 4:03 PM AKDT (10/11) 11:41 PM AKDT (10/11)
Length of Visible Light 11h 51m
Length of Day
10h 21m
Waxing Crescent, 49% of the Moon is Illuminated
Oct 11
Waxing Crescent
Oct 11
First Quarter
Oct 18
Full
Oct 26
Last Quarter
Nov 3
New

Hourly Weather History & Observations

Time (AKDT) Temp. Windchill Dew Point Humidity Pressure Visibility Wind Dir Wind Speed Gust Speed Precip Events Conditions
12:53 AM 36.0 °F 27.5 °F 32.0 °F 86% 29.80 in 10.0 mi South 12.7 mph - N/A   Overcast
1:53 AM 36.0 °F 27.5 °F 32.0 °F 86% 29.81 in 10.0 mi SSE 12.7 mph - N/A   Overcast
2:53 AM 37.0 °F 29.3 °F 32.0 °F 82% 29.81 in 10.0 mi SSE 11.5 mph - N/A   Overcast
3:53 AM 37.9 °F 31.5 °F 32.0 °F 79% 29.81 in 10.0 mi SE 9.2 mph - N/A   Overcast
4:53 AM 37.9 °F 30.0 °F 32.0 °F 79% 29.82 in 10.0 mi SE 12.7 mph - N/A   Overcast
5:53 AM 37.0 °F 30.4 °F 32.0 °F 82% 29.83 in 10.0 mi SE 9.2 mph - N/A   Mostly Cloudy
6:53 AM 35.1 °F 32.2 °F 30.9 °F 85% 29.85 in 10.0 mi ESE 3.5 mph - N/A   Partly Cloudy
7:53 AM 35.1 °F 32.2 °F 30.9 °F 85% 29.86 in 10.0 mi East 3.5 mph - N/A   Overcast
8:53 AM 35.1 °F 32.2 °F 30.9 °F 85% 29.87 in 10.0 mi ESE 3.5 mph - N/A   Overcast
9:53 AM 37.9 °F 32.1 °F 32.0 °F 79% 29.87 in 10.0 mi SSE 8.1 mph - N/A   Mostly Cloudy
10:53 AM 41.0 °F 35.2 °F 33.1 °F 73% 29.88 in 10.0 mi SSE 9.2 mph - N/A   Overcast
11:53 AM 44.1 °F 37.7 °F 33.1 °F 65% 29.89 in 10.0 mi SSE 12.7 mph 25.3 mph N/A   Scattered Clouds
12:53 PM 46.9 °F - 32.0 °F 56% 29.89 in 10.0 mi SSE 17.3 mph 33.4 mph N/A   Clear
1:53 PM 48.0 °F - 32.0 °F 54% 29.90 in 10.0 mi SSE 15.0 mph 26.5 mph N/A   Scattered Clouds
2:53 PM 48.9 °F - 30.9 °F 50% 29.90 in 10.0 mi SSE 16.1 mph 24.2 mph N/A   Clear
3:53 PM 46.9 °F - 30.9 °F 54% 29.90 in 10.0 mi SSE 19.6 mph 28.8 mph N/A   Mostly Cloudy
4:53 PM 46.9 °F - 30.9 °F 54% 29.91 in 10.0 mi SSE 20.7 mph 28.8 mph N/A   Mostly Cloudy
5:53 PM 46.0 °F 38.0 °F 30.0 °F 54% 29.91 in 10.0 mi SSE 21.9 mph 27.6 mph N/A   Scattered Clouds
6:53 PM 43.0 °F 35.7 °F 30.9 °F 62% 29.94 in 10.0 mi SSE 15.0 mph - N/A   Clear
7:53 PM 41.0 °F 34.7 °F 30.9 °F 67% 29.95 in 10.0 mi SSE 10.4 mph - N/A   Clear
8:53 PM 39.9 °F 32.5 °F 30.9 °F 70% 29.95 in 10.0 mi SSE 12.7 mph - N/A   Clear
9:53 PM 39.9 °F 32.5 °F 30.9 °F 70% 29.96 in 10.0 mi South 12.7 mph - N/A   Clear
10:53 PM 41.0 °F 34.7 °F 30.9 °F 67% 29.95 in 10.0 mi South 10.4 mph - N/A   Clear
11:53 PM 42.1 °F 33.6 °F 30.9 °F 65% 29.95 in 10.0 mi SSE 18.4 mph 24.2 mph N/A   Clear